Location: Orange Harbor Mobile Home Park
(26.6923°N, 81.7937°W)
Time: 22:43:59
(UTC+00:00)

Landsat 5 - Pass Details

Date: 19 September 2020
Orbit: 528 x 655 km, 98.2° (Epoch: 25 October)

Event Time Altitude Azimuth Distance (km) Brightness Sun altitude
Rises 09:18:31 0° 163° (SSE) 2,939 7.1 -26.4°
Reaches altitude 10° 09:20:43 10° 161° (SSE) 2,042 6.2 -25.9°
Maximum altitude 09:25:11 75° 77° (ENE) 679 3.7 -25.0°
Drops below altitude 10° 09:29:41 10° 352° (N) 2,064 6.3 -24.0°
Sets 09:31:55 0° 351° (N) 2,973 7.1 -23.5°
